TRA64R LEBL-EHRD

Flight info

Callsign TRA64R
Flight time 1h 46m
Altitude 36000
Route OLOXO DCT OKABI DCT TOU DCT ADABI DCT BOKNO DCT DEVRO DCT VANAD DCT PIWIZ DCT VADOM DCT BAMES DCT ARSAF DCT EGOZE DCT CMB DCT VEKIN DCT ADUTO N873 FERDI Y18 DENUT
Aircraft A321/M-SDE3FGHIRWY/LB1

Departure

Time 2026-05-06 10:20
Airport Josep Tarradellas Barcelona-El Prat Airport (LEBL)

Arrival

Time 2026-05-06 12:06
Airport Rotterdam The Hague Airport (EHRD)
Time Latitude Longitude Altitude Speed Heading
2026-05-06 09:51 41.29400 2.07930 17 ft 0 kts 245°
2026-05-06 10:14 41.29400 2.07928 16 ft 2 kts 245°
2026-05-06 10:14 41.29375 2.07884 16 ft 8 kts 200°
2026-05-06 10:14 41.29333 2.07898 20 ft 5 kts 158°
2026-05-06 10:15 41.29304 2.07915 21 ft 5 kts 155°
2026-05-06 10:15 41.29261 2.07953 19 ft 11 kts 124°
2026-05-06 10:15 41.29287 2.08082 19 ft 19 kts 64°
2026-05-06 10:15 41.29351 2.08272 19 ft 24 kts 66°
2026-05-06 10:16 41.29327 2.08405 20 ft 16 kts 155°
2026-05-06 10:16 41.29206 2.08475 21 ft 23 kts 155°
2026-05-06 10:16 41.29032 2.08579 18 ft 31 kts 156°
2026-05-06 10:16 41.28891 2.08663 16 ft 14 kts 150°
2026-05-06 10:17 41.28878 2.08776 17 ft 14 kts 67°
2026-05-06 10:17 41.28920 2.08898 18 ft 16 kts 65°
2026-05-06 10:17 41.28976 2.09062 16 ft 23 kts 65°
2026-05-06 10:17 41.29051 2.09283 19 ft 30 kts 65°
2026-05-06 10:18 41.29146 2.09556 17 ft 34 kts 65°
2026-05-06 10:18 41.29242 2.09840 17 ft 25 kts 68°
2026-05-06 10:18 41.29248 2.09972 16 ft 15 kts 145°
2026-05-06 10:18 41.29157 2.09926 17 ft 15 kts 217°
2026-05-06 10:19 41.29071 2.09845 19 ft 18 kts 215°
2026-05-06 10:19 41.28995 2.09664 20 ft 28 kts 246°
2026-05-06 10:19 41.28828 2.09179 17 ft 100 kts 245°
2026-05-06 10:19 41.28428 2.08014 25 ft 172 kts 245°
2026-05-06 10:20 41.27853 2.06575 844 ft 170 kts 226°
2026-05-06 10:20 41.27229 2.05969 1539 ft 168 kts 203°
2026-05-06 10:20 41.26125 2.05456 2097 ft 170 kts 195°
2026-05-06 10:20 41.24576 2.05019 2717 ft 176 kts 190°
2026-05-06 10:21 41.23321 2.04747 3035 ft 190 kts 189°
2026-05-06 10:21 41.22434 2.04589 3226 ft 199 kts 189°
2026-05-06 10:21 41.21017 2.04305 3512 ft 212 kts 192°
2026-05-06 10:21 41.19531 2.03946 3854 ft 222 kts 198°
2026-05-06 10:22 41.18201 2.02905 4310 ft 226 kts 231°
2026-05-06 10:22 41.17248 2.01229 4963 ft 229 kts 236°
2026-05-06 10:22 41.16287 1.99533 5718 ft 229 kts 234°
2026-05-06 10:22 41.15328 1.97879 6487 ft 229 kts 234°
2026-05-06 10:23 41.14351 1.96209 7204 ft 230 kts 234°
2026-05-06 10:23 41.13451 1.94451 7886 ft 231 kts 245°
2026-05-06 10:23 41.12892 1.92398 8403 ft 241 kts 254°
2026-05-06 10:23 41.12399 1.90246 9074 ft 245 kts 254°
2026-05-06 10:24 41.11898 1.88072 9776 ft 248 kts 254°
2026-05-06 10:24 41.11555 1.85835 10417 ft 250 kts 268°
2026-05-06 10:24 41.11722 1.83510 10858 ft 263 kts 284°
2026-05-06 10:24 41.12382 1.81141 11047 ft 285 kts 290°
2026-05-06 10:25 41.13139 1.78638 11189 ft 307 kts 292°
2026-05-06 10:25 41.14324 1.76176 11423 ft 327 kts 310°
2026-05-06 10:25 41.16130 1.74272 11979 ft 338 kts 327°
2026-05-06 10:25 41.18195 1.72736 12618 ft 342 kts 328°
2026-05-06 10:26 41.20325 1.71282 13253 ft 348 kts 335°
2026-05-06 10:26 41.22664 1.70352 13872 ft 356 kts 346°
2026-05-06 10:26 41.25145 1.69930 14439 ft 361 kts 350°
2026-05-06 10:26 41.27660 1.69551 15007 ft 365 kts 349°
2026-05-06 10:27 41.30202 1.69167 15576 ft 370 kts 349°
2026-05-06 10:27 41.32774 1.68770 16136 ft 374 kts 348°
2026-05-06 10:27 41.35332 1.68367 16723 ft 377 kts 348°
2026-05-06 10:27 41.37943 1.67955 17313 ft 380 kts 348°
2026-05-06 10:28 41.40581 1.67540 17877 ft 383 kts 348°
2026-05-06 10:28 41.43249 1.67116 18398 ft 387 kts 348°
2026-05-06 10:28 41.45933 1.66691 18868 ft 390 kts 347°
2026-05-06 10:28 41.48641 1.66262 19313 ft 394 kts 347°
2026-05-06 10:29 41.51380 1.65829 19776 ft 397 kts 347°
2026-05-06 10:29 41.54140 1.65398 20217 ft 401 kts 347°
2026-05-06 10:29 41.56888 1.64971 20679 ft 404 kts 347°
2026-05-06 10:29 41.59692 1.64537 21143 ft 407 kts 347°
2026-05-06 10:30 41.62527 1.64097 21590 ft 410 kts 347°
2026-05-06 10:30 41.65377 1.63654 22032 ft 414 kts 347°
2026-05-06 10:30 41.68261 1.63206 22471 ft 417 kts 346°
2026-05-06 10:30 41.71158 1.62757 22886 ft 421 kts 346°
2026-05-06 10:31 41.74047 1.62307 23309 ft 424 kts 346°
2026-05-06 10:31 41.76983 1.61847 23691 ft 427 kts 346°
2026-05-06 10:31 41.79945 1.61379 24058 ft 430 kts 346°
2026-05-06 10:31 41.82923 1.60907 24422 ft 432 kts 346°
2026-05-06 10:32 41.85920 1.60436 24781 ft 434 kts 346°
2026-05-06 10:32 41.88933 1.59963 25128 ft 437 kts 346°
2026-05-06 10:32 41.91958 1.59485 25501 ft 439 kts 346°
2026-05-06 10:32 41.95010 1.59003 25854 ft 441 kts 346°
2026-05-06 10:33 41.98026 1.58529 26221 ft 443 kts 346°
2026-05-06 10:33 42.01096 1.58047 26576 ft 445 kts 346°
2026-05-06 10:33 42.04180 1.57557 26914 ft 447 kts 346°
2026-05-06 10:33 42.07277 1.57060 27264 ft 449 kts 346°
2026-05-06 10:34 42.10393 1.56561 27627 ft 451 kts 346°
2026-05-06 10:34 42.13509 1.56068 27989 ft 453 kts 346°
2026-05-06 10:34 42.16654 1.55575 28281 ft 455 kts 346°
2026-05-06 10:34 42.19812 1.55078 28614 ft 457 kts 346°
2026-05-06 10:35 42.22932 1.54584 28888 ft 458 kts 346°
2026-05-06 10:35 42.26107 1.54076 29178 ft 460 kts 346°
2026-05-06 10:35 42.29301 1.53564 29498 ft 462 kts 346°
2026-05-06 10:35 42.32510 1.53048 29795 ft 464 kts 346°
2026-05-06 10:36 42.35728 1.52531 30102 ft 467 kts 346°
2026-05-06 10:36 42.38950 1.52017 30408 ft 467 kts 346°
2026-05-06 10:36 42.42183 1.51502 30714 ft 468 kts 346°
2026-05-06 10:36 42.45427 1.50984 31070 ft 467 kts 346°
2026-05-06 10:37 42.48647 1.50465 31440 ft 466 kts 346°
2026-05-06 10:37 42.51835 1.49950 31809 ft 465 kts 346°
2026-05-06 10:37 42.55046 1.49433 32122 ft 464 kts 346°
2026-05-06 10:37 42.58262 1.48913 32412 ft 464 kts 346°
2026-05-06 10:38 42.61469 1.48394 32837 ft 463 kts 346°
2026-05-06 10:38 42.64671 1.47876 33154 ft 463 kts 346°
2026-05-06 10:38 42.67873 1.47360 33444 ft 463 kts 346°
2026-05-06 10:38 42.71080 1.46846 33805 ft 463 kts 347°
2026-05-06 10:39 42.74279 1.46334 34130 ft 463 kts 347°
2026-05-06 10:39 42.77434 1.45827 34366 ft 462 kts 347°
2026-05-06 10:39 42.80628 1.45313 34587 ft 462 kts 347°
2026-05-06 10:39 42.83817 1.44795 34843 ft 461 kts 347°
2026-05-06 10:40 42.87013 1.44278 35041 ft 462 kts 347°
2026-05-06 10:40 42.90208 1.43761 35300 ft 461 kts 347°
2026-05-06 10:40 42.93398 1.43245 35560 ft 461 kts 347°
2026-05-06 10:40 42.96586 1.42729 35815 ft 461 kts 347°
2026-05-06 10:41 42.99739 1.42215 35939 ft 461 kts 347°
2026-05-06 10:41 43.02917 1.41695 35993 ft 460 kts 347°
2026-05-06 10:41 43.09251 1.40666 35975 ft 458 kts 348°
2026-05-06 10:42 43.15587 1.39645 35974 ft 457 kts 347°
2026-05-06 10:42 43.21915 1.38609 35973 ft 458 kts 347°
2026-05-06 10:43 43.28239 1.37571 35968 ft 457 kts 347°
2026-05-06 10:44 43.37681 1.36014 35963 ft 457 kts 347°
2026-05-06 10:44 43.43964 1.34978 35986 ft 457 kts 348°
2026-05-06 10:45 43.50286 1.33940 35980 ft 457 kts 348°
2026-05-06 10:45 43.56599 1.32902 35980 ft 456 kts 348°
2026-05-06 10:46 43.62910 1.31855 36006 ft 456 kts 348°
2026-05-06 10:46 43.69209 1.30773 35999 ft 455 kts 347°
2026-05-06 10:47 43.75408 1.29300 35990 ft 453 kts 344°
2026-05-06 10:47 43.81592 1.27577 35984 ft 453 kts 344°
2026-05-06 10:48 43.87794 1.25883 35987 ft 454 kts 345°
2026-05-06 10:48 43.94002 1.24274 35977 ft 454 kts 345°
2026-05-06 10:49 44.00175 1.22701 35967 ft 454 kts 346°
2026-05-06 10:49 44.06379 1.21110 35985 ft 454 kts 346°
2026-05-06 10:50 44.12584 1.19486 35972 ft 454 kts 346°
2026-05-06 10:50 44.18796 1.17846 35970 ft 454 kts 346°
2026-05-06 10:51 44.24974 1.16225 35975 ft 454 kts 346°
2026-05-06 10:51 44.31184 1.14601 35966 ft 453 kts 346°
2026-05-06 10:52 44.37391 1.12975 35973 ft 452 kts 346°
2026-05-06 10:52 44.43533 1.11353 35991 ft 451 kts 346°
2026-05-06 10:53 44.49704 1.09725 35977 ft 451 kts 346°
2026-05-06 10:53 44.55866 1.08094 35967 ft 450 kts 346°
2026-05-06 10:54 44.61976 1.06473 35964 ft 449 kts 346°
2026-05-06 10:54 44.68158 1.04834 35957 ft 449 kts 346°
2026-05-06 10:55 44.74253 1.03214 35947 ft 449 kts 346°
2026-05-06 10:55 44.80399 1.01573 35940 ft 449 kts 346°
2026-05-06 10:56 44.86538 0.99929 35932 ft 448 kts 346°
2026-05-06 10:56 44.92673 0.98284 35931 ft 448 kts 346°
2026-05-06 10:57 44.98765 0.96647 35925 ft 448 kts 346°
2026-05-06 10:57 45.04896 0.94995 35928 ft 448 kts 347°
2026-05-06 10:58 45.11033 0.93335 35925 ft 449 kts 347°
2026-05-06 10:58 45.17136 0.91683 35922 ft 449 kts 347°
2026-05-06 10:59 45.23281 0.90017 35929 ft 449 kts 347°
2026-05-06 10:59 45.29422 0.88350 35930 ft 449 kts 347°
2026-05-06 11:00 45.35570 0.86678 35915 ft 449 kts 347°
2026-05-06 11:00 45.41720 0.84998 35914 ft 449 kts 347°
2026-05-06 11:01 45.47833 0.83326 35909 ft 450 kts 347°
2026-05-06 11:01 45.53980 0.81649 35906 ft 450 kts 347°
2026-05-06 11:02 45.60134 0.79962 35922 ft 449 kts 347°
2026-05-06 11:02 45.66283 0.78266 35909 ft 449 kts 347°
2026-05-06 11:03 45.72381 0.76573 35923 ft 449 kts 347°
2026-05-06 11:03 45.78507 0.74887 35933 ft 448 kts 348°
2026-05-06 11:04 45.84642 0.73201 35921 ft 448 kts 348°
2026-05-06 11:04 45.90768 0.71488 35918 ft 447 kts 347°
2026-05-06 11:05 45.96835 0.69791 35911 ft 447 kts 348°
2026-05-06 11:05 46.02961 0.68086 35915 ft 447 kts 348°
2026-05-06 11:06 46.09029 0.66386 35918 ft 446 kts 348°
2026-05-06 11:06 46.15135 0.64670 35917 ft 446 kts 348°
2026-05-06 11:07 46.21243 0.62961 35923 ft 446 kts 348°
2026-05-06 11:07 46.27334 0.61247 35921 ft 446 kts 348°
2026-05-06 11:08 46.33387 0.59538 35914 ft 445 kts 348°
2026-05-06 11:08 46.39479 0.57818 35919 ft 445 kts 348°
2026-05-06 11:09 46.45554 0.56086 35922 ft 445 kts 348°
2026-05-06 11:09 46.51631 0.54374 35921 ft 445 kts 348°
2026-05-06 11:10 46.57805 0.53843 35920 ft 446 kts
2026-05-06 11:10 46.63884 0.55634 35915 ft 446 kts 12°
2026-05-06 11:11 46.69901 0.57640 35909 ft 447 kts 12°
2026-05-06 11:11 46.75976 0.59641 35910 ft 447 kts 12°
2026-05-06 11:12 46.82044 0.61633 35913 ft 447 kts 12°
2026-05-06 11:12 46.88081 0.63639 35913 ft 447 kts 12°
2026-05-06 11:13 46.94149 0.65653 35916 ft 447 kts 12°
2026-05-06 11:13 47.00223 0.67687 35916 ft 447 kts 12°
2026-05-06 11:14 47.06330 0.69361 35914 ft 447 kts
2026-05-06 11:14 47.12544 0.69977 35923 ft 447 kts
2026-05-06 11:15 47.18723 0.70613 35932 ft 447 kts
2026-05-06 11:15 47.24937 0.71282 35942 ft 448 kts
2026-05-06 11:16 47.31153 0.71946 35946 ft 447 kts
2026-05-06 11:16 47.37370 0.72589 35951 ft 447 kts
2026-05-06 11:17 47.43548 0.73238 35949 ft 448 kts
2026-05-06 11:17 47.49750 0.74152 35948 ft 448 kts 12°
2026-05-06 11:18 47.54713 0.76383 35946 ft 448 kts 18°
2026-05-06 11:18 47.60630 0.79307 35945 ft 448 kts 18°
2026-05-06 11:19 47.66557 0.82235 35939 ft 448 kts 18°
2026-05-06 11:19 47.72451 0.85143 35937 ft 449 kts 18°
2026-05-06 11:20 47.79380 0.88583 35921 ft 449 kts 18°
2026-05-06 11:20 47.84310 0.91036 35927 ft 450 kts 18°
2026-05-06 11:21 47.90250 0.94010 35929 ft 450 kts 18°
2026-05-06 11:21 47.96191 0.97015 35930 ft 450 kts 18°
2026-05-06 11:22 48.02122 1.00032 35929 ft 450 kts 19°
2026-05-06 11:22 48.08029 1.03038 35926 ft 450 kts 18°
2026-05-06 11:23 48.13971 1.06062 35932 ft 450 kts 19°
2026-05-06 11:23 48.19911 1.09093 35934 ft 450 kts 19°
2026-05-06 11:24 48.25806 1.12105 35937 ft 450 kts 18°
2026-05-06 11:24 48.31733 1.15124 35939 ft 449 kts 18°
2026-05-06 11:25 48.37664 1.18151 35943 ft 449 kts 19°
2026-05-06 11:25 48.43586 1.21193 35940 ft 449 kts 19°
2026-05-06 11:26 48.49457 1.24211 35946 ft 448 kts 19°
2026-05-06 11:26 48.55363 1.27250 35947 ft 448 kts 19°
2026-05-06 11:27 48.61277 1.30262 35944 ft 448 kts 18°
2026-05-06 11:27 48.67218 1.33234 35924 ft 449 kts 18°
2026-05-06 11:28 48.73126 1.36197 35925 ft 450 kts 18°
2026-05-06 11:28 48.79073 1.39215 35929 ft 451 kts 18°
2026-05-06 11:29 48.85032 1.42253 35930 ft 452 kts 18°
2026-05-06 11:29 48.90992 1.45289 35934 ft 452 kts 18°
2026-05-06 11:30 48.96754 1.49067 35929 ft 451 kts 33°
2026-05-06 11:30 49.01434 1.55279 35927 ft 450 kts 49°
2026-05-06 11:31 49.05600 1.62434 35921 ft 451 kts 49°
2026-05-06 11:31 49.09769 1.69575 35928 ft 451 kts 49°
2026-05-06 11:32 49.13920 1.76705 35935 ft 451 kts 49°
2026-05-06 11:32 49.18076 1.83877 35920 ft 451 kts 49°
2026-05-06 11:33 49.22230 1.91067 35916 ft 451 kts 49°
2026-05-06 11:33 49.26386 1.98276 35915 ft 452 kts 49°
2026-05-06 11:34 49.30540 2.05511 35923 ft 452 kts 49°
2026-05-06 11:34 49.34671 2.12730 35931 ft 452 kts 49°
2026-05-06 11:35 49.38818 2.19983 35935 ft 452 kts 49°
2026-05-06 11:35 49.42963 2.27257 35931 ft 452 kts 50°
2026-05-06 11:36 49.47088 2.34501 35925 ft 453 kts 50°
2026-05-06 11:36 49.51232 2.41810 35925 ft 453 kts 50°
2026-05-06 11:37 49.55555 2.48895 35925 ft 454 kts 40°
2026-05-06 11:37 49.60773 2.54274 35925 ft 454 kts 32°
2026-05-06 11:38 49.66141 2.59452 35922 ft 454 kts 33°
2026-05-06 11:38 49.71498 2.64650 35919 ft 454 kts 32°
2026-05-06 11:39 49.76848 2.69855 35921 ft 454 kts 33°
2026-05-06 11:39 49.82160 2.75045 35909 ft 454 kts 33°
2026-05-06 11:40 49.87518 2.80284 35908 ft 454 kts 33°
2026-05-06 11:40 49.92870 2.85528 35907 ft 455 kts 33°
2026-05-06 11:41 49.98185 2.90763 35902 ft 455 kts 33°
2026-05-06 11:41 50.03540 2.96042 35898 ft 456 kts 33°
2026-05-06 11:42 50.08901 3.01332 35900 ft 456 kts 33°
2026-05-06 11:42 50.14261 3.06655 35903 ft 456 kts 33°
2026-05-06 11:43 50.19587 3.11949 35900 ft 456 kts 33°
2026-05-06 11:43 50.25120 3.16847 35176 ft 463 kts 25°
2026-05-06 11:44 50.31093 3.21035 33228 ft 468 kts 24°
2026-05-06 11:44 50.34043 3.23063 32271 ft 454 kts 24°
2026-05-06 11:44 50.36858 3.25004 31970 ft 444 kts 24°
2026-05-06 11:44 50.39672 3.26961 31397 ft 441 kts 25°
2026-05-06 11:45 50.42454 3.28958 30866 ft 438 kts 26°
2026-05-06 11:45 50.45181 3.31041 30332 ft 435 kts 27°
2026-05-06 11:45 50.47867 3.33180 29778 ft 432 kts 28°
2026-05-06 11:45 50.50525 3.35331 29228 ft 427 kts 27°
2026-05-06 11:46 50.53169 3.37422 28721 ft 422 kts 26°
2026-05-06 11:46 50.55819 3.39353 28217 ft 418 kts 24°
2026-05-06 11:46 50.58468 3.41162 27717 ft 413 kts 23°
2026-05-06 11:46 50.61110 3.42916 27218 ft 409 kts 22°
2026-05-06 11:47 50.63703 3.44633 26742 ft 405 kts 22°
2026-05-06 11:47 50.66288 3.46362 26273 ft 401 kts 23°
2026-05-06 11:47 50.68836 3.48095 25815 ft 397 kts 23°
2026-05-06 11:47 50.71357 3.49834 25371 ft 393 kts 23°
2026-05-06 11:48 50.73845 3.51565 24930 ft 389 kts 23°
2026-05-06 11:48 50.76316 3.53289 24499 ft 385 kts 23°
2026-05-06 11:48 50.78758 3.54991 24067 ft 382 kts 23°
2026-05-06 11:48 50.81191 3.56687 23629 ft 380 kts 22°
2026-05-06 11:49 50.83603 3.58371 23158 ft 377 kts 23°
2026-05-06 11:49 50.85958 3.60016 22706 ft 373 kts 22°
2026-05-06 11:49 50.88330 3.61669 22287 ft 369 kts 22°
2026-05-06 11:49 50.90711 3.63089 21845 ft 364 kts 13°
2026-05-06 11:50 50.93177 3.63816 21426 ft 358 kts
2026-05-06 11:50 50.95663 3.63993 20999 ft 354 kts
2026-05-06 11:50 50.98116 3.64135 20571 ft 352 kts
2026-05-06 11:50 51.00559 3.64285 20136 ft 349 kts
2026-05-06 11:51 51.02985 3.64441 19706 ft 347 kts
2026-05-06 11:51 51.05365 3.64596 19288 ft 345 kts
2026-05-06 11:51 51.07758 3.64750 18873 ft 343 kts
2026-05-06 11:51 51.10137 3.64905 18442 ft 341 kts
2026-05-06 11:52 51.12508 3.65061 18004 ft 340 kts
2026-05-06 11:52 51.14871 3.65218 17569 ft 337 kts
2026-05-06 11:52 51.17205 3.65369 17160 ft 334 kts
2026-05-06 11:52 51.19513 3.65514 16759 ft 331 kts
2026-05-06 11:53 51.21795 3.65805 16360 ft 329 kts
2026-05-06 11:53 51.23993 3.66806 15964 ft 328 kts 21°
2026-05-06 11:53 51.26007 3.68524 15557 ft 332 kts 33°
2026-05-06 11:53 51.27901 3.70699 15114 ft 336 kts 34°
2026-05-06 11:54 51.29800 3.72881 14664 ft 336 kts 34°
2026-05-06 11:54 51.31677 3.75030 14234 ft 336 kts 34°
2026-05-06 11:54 51.33583 3.77212 13786 ft 336 kts 34°
2026-05-06 11:54 51.35477 3.79390 13322 ft 334 kts 34°
2026-05-06 11:55 51.37368 3.81569 12846 ft 333 kts 34°
2026-05-06 11:55 51.39243 3.83731 12373 ft 331 kts 34°
2026-05-06 11:55 51.41110 3.85886 11906 ft 330 kts 34°
2026-05-06 11:55 51.42969 3.88029 11443 ft 328 kts 34°
2026-05-06 11:56 51.44793 3.90135 10999 ft 326 kts 34°
2026-05-06 11:56 51.46629 3.92262 10542 ft 324 kts 34°
2026-05-06 11:56 51.48448 3.94371 10108 ft 322 kts 35°
2026-05-06 11:56 51.50260 3.96475 9665 ft 320 kts 34°
2026-05-06 11:57 51.52061 3.98568 9184 ft 318 kts 34°
2026-05-06 11:57 51.53851 4.00650 8708 ft 316 kts 34°
2026-05-06 11:57 51.55629 4.02719 8235 ft 314 kts 34°
2026-05-06 11:57 51.57375 4.04751 7780 ft 312 kts 34°
2026-05-06 11:58 51.59128 4.06794 7317 ft 309 kts 34°
2026-05-06 11:58 51.60861 4.08819 6871 ft 307 kts 34°
2026-05-06 11:58 51.62568 4.10813 6409 ft 294 kts 34°
2026-05-06 11:58 51.64169 4.12683 5953 ft 276 kts 34°
2026-05-06 11:59 51.65690 4.14459 5494 ft 267 kts 34°
2026-05-06 11:59 51.67193 4.16219 5023 ft 268 kts 34°
2026-05-06 11:59 51.68701 4.17986 4566 ft 268 kts 34°
2026-05-06 11:59 51.70214 4.19758 4089 ft 268 kts 34°
2026-05-06 12:00 51.71726 4.21533 3627 ft 269 kts 35°
2026-05-06 12:00 51.73275 4.23058 3403 ft 260 kts 22°
2026-05-06 12:00 51.75002 4.23787 3199 ft 254 kts
2026-05-06 12:00 51.76750 4.23665 3019 ft 248 kts 351°
2026-05-06 12:01 51.78412 4.23198 2919 ft 238 kts 352°
2026-05-06 12:01 51.80008 4.22765 2812 ft 228 kts 352°
2026-05-06 12:01 51.81543 4.22353 2705 ft 218 kts 352°
2026-05-06 12:01 51.83013 4.21957 2598 ft 209 kts 352°
2026-05-06 12:02 51.84417 4.21628 2504 ft 205 kts
2026-05-06 12:02 51.85812 4.21943 2489 ft 203 kts 20°
2026-05-06 12:02 51.87060 4.23062 2502 ft 202 kts 39°
2026-05-06 12:02 51.87958 4.24745 2487 ft 198 kts 55°
2026-05-06 12:03 51.88706 4.26609 2381 ft 196 kts 55°
2026-05-06 12:03 51.89444 4.28453 2146 ft 194 kts 54°
2026-05-06 12:03 51.90178 4.30280 1895 ft 191 kts 54°
2026-05-06 12:03 51.90875 4.32016 1667 ft 175 kts 54°
2026-05-06 12:04 51.91494 4.33559 1428 ft 156 kts 54°
2026-05-06 12:04 51.92053 4.34952 1210 ft 142 kts 53°
2026-05-06 12:04 51.92577 4.36256 1030 ft 135 kts 54°
2026-05-06 12:04 51.93091 4.37537 841 ft 136 kts 54°
2026-05-06 12:05 51.93604 4.38818 642 ft 135 kts 55°
2026-05-06 12:05 51.94111 4.40106 478 ft 134 kts 55°
2026-05-06 12:05 51.94625 4.41371 273 ft 134 kts 55°
2026-05-06 12:05 51.95128 4.42623 82 ft 132 kts 56°
2026-05-06 12:06 51.95616 4.43839 2 ft 119 kts 56°
2026-05-06 12:06 51.95940 4.44650 -1 ft 58 kts 57°
2026-05-06 12:06 51.96094 4.45044 3 ft 29 kts 58°
2026-05-06 12:06 51.96156 4.45231 2 ft 16 kts 81°
2026-05-06 12:07 51.96102 4.45384 1 ft 16 kts 144°
2026-05-06 12:07 51.96013 4.45325 1 ft 15 kts 234°
2026-05-06 12:07 51.95959 4.45194 1 ft 13 kts 237°
2026-05-06 12:07 51.95911 4.45072 1 ft 14 kts 237°
2026-05-06 12:08 51.95850 4.44919 1 ft 19 kts 237°
2026-05-06 12:08 51.95769 4.44716 1 ft 24 kts 237°
2026-05-06 12:08 51.95704 4.44552 2 ft 27 kts 237°
2026-05-06 12:08 51.95597 4.44284 1 ft 29 kts 237°
2026-05-06 12:09 51.95486 4.44008 1 ft 29 kts 236°
2026-05-06 12:09 51.95378 4.43737 1 ft 27 kts 237°
2026-05-06 12:09 51.95311 4.43570 1 ft 12 kts 237°
2026-05-06 12:09 51.95256 4.43510 1 ft 10 kts 171°
2026-05-06 12:10 51.95201 4.43557 1 ft 9 kts 147°
2026-05-06 12:10 51.95153 4.43606 1 ft 8 kts 147°
2026-05-06 12:10 51.95109 4.43653 1 ft 8 kts 146°
2026-05-06 12:10 51.95064 4.43702 1 ft 8 kts 147°
2026-05-06 12:11 51.95024 4.43671 1 ft 7 kts 235°
2026-05-06 12:11 51.94994 4.43599 1 ft 8 kts 237°
2026-05-06 12:11 51.94966 4.43528 1 ft 6 kts 237°
2026-05-06 12:11 51.94967 4.43478 1 ft 4 kts 316°
2026-05-06 12:12 51.94980 4.43463 1 ft 1 kts 325°
2026-05-06 12:12 51.94986 4.43457 2 ft 1 kts 327°
2026-05-06 12:12 51.94990 4.43453 2 ft 1 kts 326°
2026-05-06 12:12 51.94993 4.43450 1 ft 0 kts 326°